Regional Weather Roundup
Issued by NWS

Home | Current Version | Previous Version | Graphics & Text | Print | Product List | Glossary On
Versions: 1 2 3 4 5 6 7 8 9 10 11 12 13 14 15 16 17 18 19 20 21 22 23 24 25 26 27 28 29 30 31 32 33 34 35 36 37 38 39 40 41 42 43 44 45 46 47 48 49 50
681
ASUS43 KMKX 162300
RWRWI

WISCONSIN REGIONAL WEATHER ROUNDUP
NATIONAL WEATHER SERVICE MILWAUKEE/SULLIVAN WI
600 PM CDT WED AUG 16 2017

NOTE: "FAIR" INDICATES FEW OR NO CLOUDS BELOW 12,000 FEET WITH NO
SIGNIFICANT WEATHER AND/OR OBSTRUCTIONS TO VISIBILITY.

WIZ001-002-006>008-014>016-023>028-170000-
NORTHWEST WISCONSIN

CITY           SKY/WX    TMP DP  RH WIND       PRES   REMARKS
SUPERIOR ARPT    N/A     62  61  99 NE12G18   29.87F
ASHLAND        PTSUNNY   69  61  75 NE10      29.88F
HAYWARD        CLOUDY    75  63  66 E7        29.86F
SIREN          CLOUDY    74  65  73 E6        29.83F
CUMBERLAND     CLOUDY    73  63  68 E5        29.84S
RICE LAKE      CLOUDY    76  65  69 E10       29.84F
CHETEK         CLOUDY    76  67  73 MISG      29.83F
LADYSMITH      CLOUDY    76  64  65 E10       29.88F
EAU CLAIRE     NOT AVBL
MENOMONIE      CLOUDY    79  67  66 E9        29.80F HX  81
NEW RICHMOND   CLOUDY    75  66  73 E9        29.79F
OSCEOLA        PTSUNNY   76  67  74 E10       29.81F
$$

WIZ003>005-009-010-017-018-170000-
NORTH CENTRAL WISCONSIN

CITY           SKY/WX    TMP DP  RH WIND       PRES   REMARKS
MANITOWISH WTR CLOUDY    73  61  65 E7        29.92F
ARBOR VITAE    MOSUNNY   74  61  61 SE10      29.93F
WOODRUFF       MOSUNNY   74  61  61 SE10      29.93F
RHINELANDER    MOSUNNY   71  59  65 E10       29.94F
EAGLE RIVER    CLOUDY    72  54  53 S6        29.95S
LAND O LAKES   MOSUNNY   73  55  53 SE8       29.97S
PHILLIPS       CLOUDY    73  62  69 E9        29.89F
TOMAHAWK         N/A     72  60  66 E5        29.92F
MEDFORD        CLOUDY    73  64  73 SE6       29.89F
MERRILL        PTSUNNY   73  63  68 SE10      29.92F
$$

WIZ029-030-035-036-043>047-170000-
CENTRAL WISCONSIN

CITY           SKY/WX    TMP DP  RH WIND       PRES   REMARKS
WAUSAU         CLOUDY    73  62  68 E12       29.88F
MOSINEE        PTSUNNY   73  64  73 E9        29.91F
MARSHFIELD     CLOUDY    75  63  66 E10       29.86F
STEVENS POINT  PTSUNNY   75  63  64 E10       29.90F
WAUPACA        CLOUDY    78  64  62 E12       29.90F HX  80
WAUTOMA        CLOUDY    77  67  71 E15       29.86
WISC RAPIDS    MOSUNNY   77  65  66 E9        29.87F
CAMP DOUGLAS   NOT AVBL
$$

WIZ011>013-019>022-031-037>040-048>050-170000-
NORTHEAST WISCONSIN

CITY           SKY/WX    TMP DP  RH WIND       PRES   REMARKS
ANTIGO         MOSUNNY   71  60  67 SE12      29.95F
SHAWANO        PTSUNNY   74  63  67 E8        29.93F
OCONTO         CLOUDY    72  62  69 E9        29.94F
STURGEON BAY   NOT AVBL
GREEN BAY      MOSUNNY   74  65  73 E9        29.92F
MANITOWOC      NOT AVBL
APPLETON       PTSUNNY   75  59  57 E10       29.90F
CLINTONVILLE   PTSUNNY   73  63  68 E7        29.91F
OSHKOSH        CLOUDY    75  64  68 E13       29.89F
$$

WIZ032>034-041-042-053>061-170000-
SOUTHWEST WISCONSIN

CITY           SKY/WX    TMP DP  RH WIND       PRES   REMARKS
LA CROSSE      CLOUDY    83  69  62 E9        29.75F HX  86
SPARTA         PTSUNNY   79  68  69 E10G16    29.81F HX  81
VIROQUA        CLOUDY    72  72 100 SE10      29.81F
BOSCOBEL       PTSUNNY   78  72  81 VRB3      29.79F HX  80
PRAIRIE DU CHI CLOUDY    76  68  77 E10       29.77F
PLATTEVILLE    CLOUDY    75  74  98 E9        29.82F
$$

WIZ056-057-062-063-064-067-068-170000-
SOUTH CENTRAL WISCONSIN

CITY           SKY/WX    TMP DP  RH WIND       PRES   REMARKS
REEDSBURG      DRIZZLE   79  69  72 E7        29.82F HX  81
BARABOO/DELLS  CLOUDY    79  66  64 E12       29.84F HX  81
LONE ROCK      NOT AVBL
MINERAL POINT  PTSUNNY   75  75 100 SE12G17   29.84F
MADISON        RAIN      77  72  84 SE14      29.82F
MIDDLETON      CLOUDY    78  72  81 SE7       29.85F HX  80
WATERTOWN      MOSUNNY   77  69  75 E13G18    29.86F
MONROE         RAIN      72  68  88 E14G20    29.86F
JANESVILLE     DRIZZLE   73  73 100 E7        29.86R
$$

WIZ051-052-058>065-066-070>072-170000-
SOUTHEAST WISCONSIN

CITY           SKY/WX    TMP DP  RH WIND       PRES   REMARKS
MILWAUKEE      PTSUNNY   74  68  81 NE9       29.89F
WAUKESHA       SUNNY     73  63  68 E12       29.90F
MILWAUKEE/TIMM SUNNY     73  63  68 E9        29.91F
RACINE         MOSUNNY   74  68  81 E8        29.91F
KENOSHA        LGT RAIN  74  68  81 E9        29.90F
FOND DU LAC    MOSUNNY   76  61  59 E10       29.89F
SHEBOYGAN      PTSUNNY   71  65  81 E8        29.92F
WEST BEND      MOSUNNY   72  63  73 E9        29.92S
JUNEAU         CLOUDY    75  65  71 E13       29.89F
$$

LSZ147-162-170000-
LAKE SUPERIOR

STATION/POSITION TIME  TEMP    WIND        PRES    WAVE
                       AIR SEA DIR/SP/G            HT/PER
                 (UTC) (F)     (DEG/KT/KT) (MB)    (FT/S)
W MID LAKE BUOY  2150   62 61   50/ 12/ 14 1013.6F   1/ 3
DEVILS ISLAND    2200   62      50/ 15/ 17 1013.3F
SAXON HARBOR     2240   68      60/ 10/ 13 1011.5F
$$

LMZ867-665-643>646-170000-
LAKE MICHIGAN

STATION/POSITION TIME  TEMP    WIND        PRES    WAVE
                       AIR SEA DIR/SP/G            HT/PER
                 (UTC) (F)     (DEG/KT/KT) (MB)    (FT/S)
S GREEN BAY BUOY 2230   71 72   60/ 12/ 14 1014.0F
N MID LAKE BUOY  2150   69 69   70/  8/ 10 1015.3F   1
NORTHPORT PIER   2240   69      80/  6/  7 1014.2F
KEWAUNEE LAKESHO 2230   70      60/  3/  7 1013.7R
SHEBOYGAN LAKESH 2200   69      50/  9/ 10 1013.5F
PORT WASHINGTON  2240   73      50/  8/ 11 1013.9F
ATWATER BUOY     2139   72      60/ 10/ 12 1013.3F
MILWAUKEE LAKESH 2240   71      50/ 10/ 11   N/A
S MID LAKE BUOY  2150   74 73   50/ 10/ 12 1012.9F   1
KENOSHA   LAKESH 2200   73      60/  6/  8 1012.2
$$

TC  - TEMPERATURE IN CELSIUS
VSB - VISIBILITY IN STATUTE MILES
WCI - WIND CHILL INDEX
HX  - HEAT INDEX





USA.gov is the U.S. government's official web portal to all federal, state and local government web resources and services.